User: anonymous   Login
Location: Prague
(50.0830°N, 14.4670°E)
Time: 04:54:37
(UTC+01:00)
Language:

UWE-3 - Orbit

View from above orbital plane
View from above orbital plane
View from above satellite
View from above satellite

Ground track
Ground track

The orbit data is extracted from the following two-line orbital elements,

1 39446U 13066AG  21339.47212909  .00000704  00000-0  98551-4 0  9997
2 39446  97.6599 307.3391 0069620   3.0036 357.1580 14.78959113431784
Epoch (UTC): 05 December 2021 11:19:51
Eccentricity: 0.0069620
inclination: 97.6599°
perigee height: 584 km
apogee height: 681 km
right ascension of ascending node: 307.3391°
argument of perigee: 3.0036°
revolutions per day: 14.78959113
mean anomaly at epoch: 357.1580°
orbit number at epoch: 43178

The dashed part of the orbit path shows where the satellite is in the earth's shadow,  

DLR